Location: Martz Observatory
(42.0083°N, 79.0667°W)
Time: 06:27:33
(UTC-04:00)

Meteor 1-23 Rocket - Visible Passes

Search period start: 28 August 2016 00:00
Search period end: 07 September 2016 00:00
Orbit: 836 x 889 km, 81.3° (Epoch: 27 August)

Date Brightness Start Highest point End Pass type
(mag) Time Alt. Az. Time Alt. Az. Time Alt. Az.
28 Aug 4.4 20:11:48 10° N 20:17:29 86° W 20:23:12 10° S visible
28 Aug 7.3 21:58:37 10° WNW 21:59:43 11° W 22:00:50 10° W visible
29 Aug 7.4 21:50:09 10° WNW 21:51:25 11° W 21:52:42 10° W visible
30 Aug 7.4 21:41:41 10° WNW 21:43:06 11° W 21:44:32 10° W visible
31 Aug 7.4 21:33:15 10° WNW 21:34:47 11° W 21:36:20 10° W visible
01 Sep 7.4 21:24:49 10° WNW 21:26:29 11° W 21:28:09 10° W visible
02 Sep 7.4 21:16:24 10° WNW 21:18:10 11° W 21:19:57 10° W visible
03 Sep 7.5 21:07:59 10° WNW 21:09:51 12° W 21:11:44 10° W visible
04 Sep 7.5 20:59:34 10° WNW 21:01:32 12° W 21:03:32 10° WSW visible
05 Sep 7.5 20:51:10 10° WNW 20:53:14 12° W 20:55:18 10° WSW visible
06 Sep 7.6 20:42:46 10° WNW 20:44:54 12° W 20:47:05 10° WSW visible
